Time,TemperatureF,DewpointF,PressureIn,WindDirection,WindDirectionDegrees,WindSpeedMPH,WindSpeedGustMPH,Humidity,HourlyPrecipIn,Conditions,Clouds,dailyrainin,SoftwareType,DateUTC
2013-07-31 00:02:00,67.0,62.0,30.07,SE,143,3.0,-999.0,83,-99.99,,,-99.99,,2013-07-31 04:02:00,
2013-07-31 00:22:00,66.0,61.0,30.07,SE,144,1.0,-999.0,84,-99.99,,,-99.99,,2013-07-31 04:22:00,
2013-07-31 00:32:00,66.0,61.0,30.07,SE,144,1.0,-999.0,84,-99.99,,,-99.99,,2013-07-31 04:32:00,
2013-07-31 00:42:00,66.0,61.0,30.07,SE,144,1.0,-999.0,84,-99.99,,,-99.99,,2013-07-31 04:42:00,
2013-07-31 01:12:00,65.0,61.0,30.06,SSE,165,0.0,-999.0,86,-99.99,,,-99.99,,2013-07-31 05:12:00,
2013-07-31 01:22:00,64.0,60.0,30.06,South,169,0.0,-999.0,87,-99.99,,,-99.99,,2013-07-31 05:22:00,
2013-07-31 01:32:00,64.0,60.0,30.06,South,169,0.0,-999.0,87,-99.99,,,-99.99,,2013-07-31 05:32:00,
2013-07-31 01:42:00,64.0,60.0,30.06,SE,146,0.0,-999.0,88,-99.99,,,-99.99,,2013-07-31 05:42:00,
2013-07-31 01:52:00,64.0,60.0,30.05,SSE,159,1.0,-999.0,86,-99.99,,,-99.99,,2013-07-31 05:52:00,
2013-07-31 02:02:00,64.0,60.0,30.05,SSE,159,1.0,-999.0,86,-99.99,,,-99.99,,2013-07-31 06:02:00,
2013-07-31 02:12:00,64.0,60.0,30.05,SSE,158,1.0,-999.0,86,-99.99,,,-99.99,,2013-07-31 06:12:00,
2013-07-31 02:32:00,63.0,59.0,30.04,SSE,158,0.0,-999.0,87,-99.99,,,-99.99,,2013-07-31 06:32:00,
2013-07-31 02:43:00,63.0,59.0,30.04,SSE,158,0.0,-999.0,88,-99.99,,,-99.99,,2013-07-31 06:43:00,
2013-07-31 02:53:00,63.0,59.0,30.04,SSE,158,0.0,-999.0,88,-99.99,,,-99.99,,2013-07-31 06:53:00,
2013-07-31 03:02:00,63.0,59.0,30.04,SSE,158,0.0,-999.0,88,-99.99,,,-99.99,,2013-07-31 07:02:00,
2013-07-31 03:12:00,63.0,59.0,30.04,SSE,158,0.0,-999.0,88,-99.99,,,-99.99,,2013-07-31 07:12:00,
2013-07-31 03:22:00,63.0,59.0,30.04,SSE,158,0.0,-999.0,88,-99.99,,,-99.99,,2013-07-31 07:22:00,
2013-07-31 03:32:00,63.0,59.0,30.04,SSE,158,0.0,-999.0,88,-99.99,,,-99.99,,2013-07-31 07:32:00,
2013-07-31 03:43:00,63.0,59.0,30.04,SSE,158,0.0,-999.0,88,-99.99,,,-99.99,,2013-07-31 07:43:00,
2013-07-31 03:52:00,63.0,59.0,30.03,SSE,158,0.0,-999.0,88,-99.99,,,-99.99,,2013-07-31 07:52:00,
2013-07-31 04:02:00,63.0,59.0,30.03,SSE,158,0.0,-999.0,88,-99.99,,,-99.99,,2013-07-31 08:02:00,
2013-07-31 04:12:00,63.0,59.0,30.03,SSE,158,0.0,-999.0,88,-99.99,,,-99.99,,2013-07-31 08:12:00,
2013-07-31 04:22:00,63.0,59.0,30.03,SSE,158,0.0,-999.0,88,-99.99,,,-99.99,,2013-07-31 08:22:00,
2013-07-31 04:32:00,63.0,60.0,30.03,SSE,158,0.0,-999.0,89,-99.99,,,-99.99,,2013-07-31 08:32:00,
2013-07-31 04:42:00,62.0,59.0,30.03,SSE,157,0.0,-999.0,89,-99.99,,,-99.99,,2013-07-31 08:42:00,
2013-07-31 04:53:00,62.0,59.0,30.03,SSE,157,0.0,-999.0,89,-99.99,,,-99.99,,2013-07-31 08:53:00,
2013-07-31 05:02:00,62.0,59.0,30.02,SSE,158,0.0,-999.0,90,-99.99,,,-99.99,,2013-07-31 09:02:00,
2013-07-31 05:12:00,62.0,59.0,30.02,SSE,158,0.0,-999.0,91,-99.99,,,-99.99,,2013-07-31 09:12:00,
2013-07-31 05:32:00,62.0,59.0,30.02,SSE,158,0.0,-999.0,91,-99.99,,,-99.99,,2013-07-31 09:32:00,
2013-07-31 05:43:00,62.0,60.0,30.02,SSE,158,0.0,-999.0,92,-99.99,,,-99.99,,2013-07-31 09:43:00,
2013-07-31 05:52:00,62.0,60.0,30.02,SSE,158,0.0,-999.0,92,-99.99,,,-99.99,,2013-07-31 09:52:00,
2013-07-31 06:02:00,62.0,60.0,30.02,SSE,150,1.0,-999.0,92,-99.99,,,-99.99,,2013-07-31 10:02:00,
2013-07-31 06:12:00,62.0,60.0,30.03,SW,215,3.0,-999.0,92,-99.99,,,-99.99,,2013-07-31 10:12:00,
2013-07-31 06:32:00,62.0,60.0,30.03,WSW,246,4.0,-999.0,92,-99.99,,,-99.99,,2013-07-31 10:32:00,
2013-07-31 06:44:00,62.0,60.0,30.04,SW,227,3.0,-999.0,92,-99.99,,,-99.99,,2013-07-31 10:44:00,
2013-07-31 06:52:00,62.0,60.0,30.04,SW,227,3.0,-999.0,92,-99.99,,,-99.99,,2013-07-31 10:52:00,
2013-07-31 07:03:00,62.0,59.0,30.04,WSW,237,4.0,-999.0,91,-99.99,,,-99.99,,2013-07-31 11:03:00,
2013-07-31 07:22:00,63.0,60.0,30.04,West,267,4.0,-999.0,91,-99.99,,,-99.99,,2013-07-31 11:22:00,
2013-07-31 07:33:00,62.0,59.0,30.04,NW,315,3.0,-999.0,91,-99.99,,,-99.99,,2013-07-31 11:33:00,
2013-07-31 07:43:00,62.0,60.0,30.04,WNW,294,1.0,-999.0,92,-99.99,,,-99.99,,2013-07-31 11:43:00,
2013-07-31 08:02:00,62.0,60.0,30.04,WNW,284,1.0,-999.0,93,-99.99,,,-99.99,,2013-07-31 12:02:00,
2013-07-31 08:12:00,61.0,59.0,30.03,NW,310,3.0,-999.0,94,-99.99,,,-99.99,,2013-07-31 12:12:00,
2013-07-31 08:33:00,61.0,60.0,30.02,NW,310,0.0,-999.0,95,-99.99,,,-99.99,,2013-07-31 12:33:00,
2013-07-31 08:43:00,61.0,60.0,30.03,NW,310,0.0,-999.0,95,-99.99,,,-99.99,,2013-07-31 12:43:00,
2013-07-31 08:52:00,61.0,60.0,30.03,NW,310,0.0,-999.0,95,-99.99,,,-99.99,,2013-07-31 12:52:00,
2013-07-31 09:12:00,61.0,60.0,30.03,NW,314,3.0,-999.0,96,-99.99,,,-99.99,,2013-07-31 13:12:00,
2013-07-31 09:33:00,61.0,60.0,30.03,NW,314,0.0,-999.0,96,-99.99,,,-99.99,,2013-07-31 13:33:00,
2013-07-31 10:02:00,62.0,61.0,30.03,NNW,331,4.0,-999.0,96,-99.99,,,-99.99,,2013-07-31 14:02:00,
2013-07-31 10:23:00,62.0,61.0,30.03,NNW,331,1.0,-999.0,96,-99.99,,,-99.99,,2013-07-31 14:23:00,
2013-07-31 10:34:00,62.0,61.0,30.03,NNW,331,0.0,-999.0,96,-99.99,,,-99.99,,2013-07-31 14:34:00,
2013-07-31 10:43:00,62.0,61.0,30.04,NNW,331,0.0,-999.0,96,-99.99,,,-99.99,,2013-07-31 14:43:00,
2013-07-31 10:53:00,62.0,61.0,30.04,NNW,331,0.0,-999.0,96,-99.99,,,-99.99,,2013-07-31 14:53:00,
2013-07-31 11:02:00,62.0,61.0,30.03,NNW,331,0.0,-999.0,96,-99.99,,,-99.99,,2013-07-31 15:02:00,
2013-07-31 11:12:00,62.0,61.0,30.03,NNW,331,0.0,-999.0,96,-99.99,,,-99.99,,2013-07-31 15:12:00,
2013-07-31 11:33:00,62.0,61.0,30.02,NNW,331,0.0,-999.0,96,-99.99,,,-99.99,,2013-07-31 15:33:00,
2013-07-31 11:43:00,62.0,61.0,30.01,NNW,331,0.0,-999.0,97,-99.99,,,-99.99,,2013-07-31 15:43:00,
2013-07-31 11:53:00,63.0,62.0,30.01,NNW,331,0.0,-999.0,97,-99.99,,,-99.99,,2013-07-31 15:53:00,
2013-07-31 12:02:00,63.0,62.0,30.01,NNW,331,0.0,-999.0,97,-99.99,,,-99.99,,2013-07-31 16:02:00,
2013-07-31 12:12:00,63.0,62.0,30.01,South,171,1.0,-999.0,96,-99.99,,,-99.99,,2013-07-31 16:12:00,
2013-07-31 12:33:00,63.0,62.0,30.00,South,171,1.0,-999.0,96,-99.99,,,-99.99,,2013-07-31 16:33:00,
2013-07-31 12:44:00,64.0,63.0,29.99,SE,130,0.0,-999.0,96,-99.99,,,-99.99,,2013-07-31 16:44:00,
2013-07-31 12:52:00,64.0,63.0,29.99,SE,130,0.0,-999.0,96,-99.99,,,-99.99,,2013-07-31 16:52:00,
2013-07-31 13:03:00,64.0,63.0,29.99,SE,127,1.0,-999.0,96,-99.99,,,-99.99,,2013-07-31 17:03:00,
2013-07-31 13:13:00,65.0,64.0,29.99,SE,145,1.0,-999.0,96,-99.99,,,-99.99,,2013-07-31 17:13:00,
2013-07-31 13:33:00,65.0,64.0,29.98,SE,138,1.0,-999.0,95,-99.99,,,-99.99,,2013-07-31 17:33:00,
2013-07-31 13:43:00,65.0,64.0,29.98,SE,136,0.0,-999.0,95,-99.99,,,-99.99,,2013-07-31 17:43:00,
2013-07-31 13:53:00,65.0,64.0,29.98,SE,136,0.0,-999.0,95,-99.99,,,-99.99,,2013-07-31 17:53:00,
2013-07-31 14:02:00,65.0,63.0,29.98,SSE,149,1.0,-999.0,94,-99.99,,,-99.99,,2013-07-31 18:02:00,
2013-07-31 14:13:00,65.0,63.0,29.97,SE,134,2.0,-999.0,93,-99.99,,,-99.99,,2013-07-31 18:13:00,
2013-07-31 14:33:00,66.0,64.0,29.97,South,184,1.0,-999.0,93,-99.99,,,-99.99,,2013-07-31 18:33:00,
2013-07-31 14:43:00,66.0,63.0,29.96,South,182,2.0,-999.0,91,-99.99,,,-99.99,,2013-07-31 18:43:00,
2013-07-31 14:52:00,66.0,63.0,29.96,South,182,2.0,-999.0,91,-99.99,,,-99.99,,2013-07-31 18:52:00,
2013-07-31 15:03:00,66.0,63.0,29.95,SSE,149,3.0,-999.0,91,-99.99,,,-99.99,,2013-07-31 19:03:00,
2013-07-31 15:12:00,67.0,64.0,29.95,South,190,4.0,-999.0,90,-99.99,,,-99.99,,2013-07-31 19:12:00,
2013-07-31 15:33:00,67.0,63.0,29.95,SSE,159,5.0,-999.0,88,-99.99,,,-99.99,,2013-07-31 19:33:00,
2013-07-31 15:43:00,67.0,63.0,29.94,South,174,5.0,-999.0,88,-99.99,,,-99.99,,2013-07-31 19:43:00,
2013-07-31 16:03:00,67.0,63.0,29.94,SSW,203,5.0,-999.0,87,-99.99,,,-99.99,,2013-07-31 20:03:00,
2013-07-31 16:23:00,67.0,63.0,29.93,SE,138,5.0,-999.0,87,-99.99,,,-99.99,,2013-07-31 20:23:00,
2013-07-31 16:32:00,66.0,62.0,29.93,SSW,193,4.0,-999.0,87,-99.99,,,-99.99,,2013-07-31 20:32:00,
2013-07-31 16:43:00,66.0,63.0,29.92,SSW,196,2.0,-999.0,89,-99.99,,,-99.99,,2013-07-31 20:43:00,
2013-07-31 16:52:00,66.0,63.0,29.92,SSW,196,2.0,-999.0,89,-99.99,,,-99.99,,2013-07-31 20:52:00,
2013-07-31 17:02:00,66.0,63.0,29.92,South,188,2.0,-999.0,89,-99.99,,,-99.99,,2013-07-31 21:02:00,
2013-07-31 17:32:00,66.0,63.0,29.91,SW,222,1.0,-999.0,90,-99.99,,,-99.99,,2013-07-31 21:32:00,
2013-07-31 17:43:00,66.0,63.0,29.90,SSW,208,2.0,-999.0,91,-99.99,,,-99.99,,2013-07-31 21:43:00,
2013-07-31 17:53:00,66.0,63.0,29.90,SSW,208,2.0,-999.0,91,-99.99,,,-99.99,,2013-07-31 21:53:00,
2013-07-31 18:02:00,66.0,64.0,29.90,SE,145,2.0,-999.0,92,-99.99,,,-99.99,,2013-07-31 22:02:00,
2013-07-31 18:22:00,66.0,64.0,29.90,SSE,153,4.0,-999.0,92,-99.99,,,-99.99,,2013-07-31 22:22:00,
2013-07-31 18:43:00,66.0,64.0,29.89,SSW,195,1.0,-999.0,93,-99.99,,,-99.99,,2013-07-31 22:43:00,
2013-07-31 18:53:00,66.0,64.0,29.89,SSW,195,1.0,-999.0,93,-99.99,,,-99.99,,2013-07-31 22:53:00,
2013-07-31 19:02:00,66.0,64.0,29.88,SSE,159,2.0,-999.0,93,-99.99,,,-99.99,,2013-07-31 23:02:00,
2013-07-31 19:12:00,66.0,64.0,29.88,South,170,1.0,-999.0,93,-99.99,,,-99.99,,2013-07-31 23:12:00,
2013-07-31 19:22:00,66.0,64.0,29.88,South,170,1.0,-999.0,93,-99.99,,,-99.99,,2013-07-31 23:22:00,
2013-07-31 19:32:00,65.0,63.0,29.89,SSE,161,2.0,-999.0,92,-99.99,,,-99.99,,2013-07-31 23:32:00,
2013-07-31 19:42:00,65.0,63.0,29.89,South,179,1.0,-999.0,92,-99.99,,,-99.99,,2013-07-31 23:42:00,
2013-07-31 20:02:00,65.0,63.0,29.89,South,179,1.0,-999.0,93,-99.99,,,-99.99,,2013-08-01 00:02:00,
2013-07-31 20:12:00,65.0,63.0,29.89,South,179,1.0,-999.0,93,-99.99,,,-99.99,,2013-08-01 00:12:00,
2013-07-31 20:32:00,65.0,63.0,29.89,South,179,1.0,-999.0,93,-99.99,,,-99.99,,2013-08-01 00:32:00,
2013-07-31 20:43:00,65.0,63.0,29.88,South,179,0.0,-999.0,93,-99.99,,,-99.99,,2013-08-01 00:43:00,
2013-07-31 20:52:00,65.0,63.0,29.88,South,179,0.0,-999.0,93,-99.99,,,-99.99,,2013-08-01 00:52:00,
2013-07-31 21:03:00,65.0,63.0,29.88,South,179,0.0,-999.0,94,-99.99,,,-99.99,,2013-08-01 01:03:00,
2013-07-31 21:12:00,65.0,63.0,29.88,South,179,0.0,-999.0,94,-99.99,,,-99.99,,2013-08-01 01:12:00,
2013-07-31 21:33:00,65.0,63.0,29.87,South,179,0.0,-999.0,94,-99.99,,,-99.99,,2013-08-01 01:33:00,
2013-07-31 21:43:00,65.0,64.0,29.87,South,179,0.0,-999.0,95,-99.99,,,-99.99,,2013-08-01 01:43:00,
2013-07-31 22:02:00,65.0,64.0,29.86,South,179,0.0,-999.0,95,-99.99,,,-99.99,,2013-08-01 02:02:00,
2013-07-31 22:22:00,64.0,63.0,29.85,South,179,0.0,-999.0,95,-99.99,,,-99.99,,2013-08-01 02:22:00,
2013-07-31 22:52:00,64.0,63.0,29.85,South,179,0.0,-999.0,95,-99.99,,,-99.99,,2013-08-01 02:52:00,
2013-07-31 23:02:00,64.0,63.0,29.85,South,179,0.0,-999.0,96,-99.99,,,-99.99,,2013-08-01 03:02:00,
2013-07-31 23:12:00,64.0,63.0,29.85,South,179,0.0,-999.0,96,-99.99,,,-99.99,,2013-08-01 03:12:00,
2013-07-31 23:22:00,64.0,63.0,29.84,South,179,0.0,-999.0,96,-99.99,,,-99.99,,2013-08-01 03:22:00,
2013-07-31 23:43:00,63.0,62.0,29.85,South,179,0.0,-999.0,97,-99.99,,,-99.99,,2013-08-01 03:43:00,
2013-07-31 23:53:00,63.0,62.0,29.85,South,179,0.0,-999.0,97,-99.99,,,-99.99,,2013-08-01 03:53:00,